Вернуться в каталог

STARLINK-32905

АктивенСвязьVLEO
NORAD 62923·PAYLOAD·🇺🇸 United States

Запущен Feb 8, 2025 с Cape Canaveral Space Force Station

Loading…

Ближайшие Пролёты (ближайшие 24 часа)

TLE

СвежийSource: CelesTrak SupGP

Эпоха: Sep 14, 2026, 15:16 UTC

1 62923C 25027S   26257.63659722  .00038668  00000+0  14006-2 0  2570
2 62923  43.0012 142.0062 0001595 264.0082 212.1976 15.27557898    17

Отслеживайте STARLINK-32905 в реальном времени с AllMySat

Download on the App Store